This demonstration page uses our WeatherBlox Daily Observations layout. Learn more.

Left ArrowRight Arrow

Hourly Observations for June 24, 2016

Temp ( °F °C ) Dew Point ( °F °C ) Humidity (%) Winds ( mph kmh ) Pressure ( in mb ) Visibility ( mi km ) Precip ( " mm )
12:53 am 00:53 Clear 74 23.3 40 4.4 29 29 WNW 9 15 29.95 1014 10 16 0.00 0.00
1:53 am 01:53 Clear 72 22.2 42 5.6 34 34 NW 6 9 29.96 1014 10 16 0.00 0.00
2:53 am 02:53 Clear 70 21.1 43 6.1 38 38 NW 5 7 29.97 1015 10 16 0.00 0.00
3:53 am 03:53 Clear 69 20.6 44 6.7 41 41 WNW 8 13 29.98 1015 10 16 0.00 0.00
4:53 am 04:53 Clear 67 19.4 43 6.1 42 42 NW 7 11 30.00 1016 10 16 0.00 0.00
5:53 am 05:53 Sunny 62 16.7 46 7.8 56 56 NE 5 7 30.01 1016 10 16 0.00 0.00
6:53 am 06:53 Sunny 66 18.9 47 8.3 50 50 NNE 5 7 30.03 1017 10 16 0.00 0.00
7:53 am 07:53 Sunny 71 21.7 45 7.2 39 39 NW 6 9 30.04 1017 10 16 0.00 0.00
8:53 am 08:53 Sunny 75 23.9 43 6.1 32 32 N 10 17 30.05 1018 10 16 0.00 0.00
9:53 am 09:53 Sunny 77 25 45 7.2 32 32 NNW 9 15 30.04 1017 10 16 0.00 0.00
10:53 am 10:53 Sunny 79 26.1 46 7.8 31 31 NNW 8 13 30.04 1017 10 16 0.00 0.00
11:53 am 11:53 Sunny 83 28.3 42 5.6 24 24 VRB 5 7 30.03 1017 10 16 0.00 0.00
12:53 pm 12:53 Sunny 86 30 36 2.2 17 17 NNW 7 11 30.02 1017 10 16 0.00 0.00
1:53 pm 13:53 Sunny 89 31.7 30 -1.1 12 12 N 10 17 30.00 1016 10 16 0.00 0.00
2:53 pm 14:53 Sunny 92 33.3 33 0.6 12 12 N 10 17 29.98 1015 10 16 0.00 0.00
3:53 pm 15:53 Sunny 91 32.8 37 2.8 15 15 N 7 11 29.97 1015 10 16 0.00 0.00
4:53 pm 16:53 Sunny 93 33.9 37 2.8 14 14 VRB 5 7 29.95 1014 10 16 0.00 0.00
5:53 pm 17:53 Sunny 93 33.9 37 2.8 14 14 NE 10 17 29.93 1014 10 16 0.00 0.00
6:53 pm 18:53 Sunny 92 33.3 37 2.8 14 14 NNE 9 15 29.92 1013 10 16 0.00 0.00
7:53 pm 19:53 Sunny 91 32.8 37 2.8 15 15 N 6 9 29.93 1014 10 16 0.00 0.00
8:53 pm 20:53 Clear 83 28.3 42 5.6 24 24 Calm 29.93 1014 10 16 0.00 0.00
9:53 pm 21:53 Clear 78 25.6 47 8.3 33 33 Calm 29.95 1014 10 16 0.00 0.00
10:53 pm 22:53 Clear 78 25.6 45 7.2 31 31 N 10 17 29.96 1015 10 16 0.00 0.00
11:53 pm 23:53 Clear 77 25 43 6.1 30 30 N 8 13 29.96 1015 10 16 0.00 0.00

Powered by AerisWeather